When you browse on this site, cookies collect data to enhance your experience and personalize the content and advertising you see.
Visit our Privacy Policy to learn more. By continuing to use the site, you agree to this use of cookies and data.
  • In Deutschland
  • Länderverzeichnis
  • Für 7 Tage
  • Wassertemperatur
  • Satellitenkarten
  • Wetterkarte
  • Widgets
  • user-avatar
    Anmelden

    Stündliche Wetter Pedro Leopoldo

    Heute, 21 Februar, Donnerstag

    Zeit Temperatur Niederschläge Wind Luftdruck Luftfeuchtigkeit
    00:00 +23°C° 1.1 mm 2 m/S 693 mmHg 88%
    01:00 +23°C° 0 mm 2 m/S 693 mmHg 89%
    02:00 +23°C° 0 mm 1 m/S 692 mmHg 89%
    03:00 +23°C° 0 mm 1 m/S 692 mmHg 89%
    04:00 +23°C° 0.2 mm 1 m/S 692 mmHg 89%
    05:00 +23°C° 0.2 mm 1 m/S 693 mmHg 89%
    06:00 +21°C° 0.2 mm 2 m/S 693 mmHg 90%
    07:00 +24°C° 0.5 mm 2 m/S 693 mmHg 86%
    08:00 +25°C° 0.5 mm 2 m/S 694 mmHg 83%
    09:00 +27°C° 0.5 mm 2 m/S 695 mmHg 80%
    10:00 +28°C° 1.1 mm 2 m/S 695 mmHg 74%
    11:00 +29°C° 1.1 mm 2 m/S 695 mmHg 68%
    12:00 +30°C° 1.1 mm 2 m/S 695 mmHg 62%
    13:00 +30°C° 0.7 mm 2 m/S 695 mmHg 64%
    14:00 +30°C° 0.7 mm 2 m/S 695 mmHg 65%
    15:00 +30°C° 0.7 mm 2 m/S 694 mmHg 67%
    16:00 +29°C° 0.2 mm 2 m/S 694 mmHg 70%
    17:00 +28°C° 0.2 mm 1 m/S 694 mmHg 74%
    18:00 +27°C° 0.2 mm 1 m/S 694 mmHg 78%
    19:00 +26°C° 0 mm 1 m/S 694 mmHg 80%
    20:00 +25°C° 0 mm 2 m/S 694 mmHg 83%
    21:00 +24°C° 0 mm 2 m/S 694 mmHg 85%
    22:00 +24°C° 0 mm 2 m/S 695 mmHg 86%
    23:00 +23°C° 0 mm 2 m/S 695 mmHg 86%

    Morgen, 22 Februar, Freitag

    Zeit Temperatur Niederschläge Wind Luftdruck Luftfeuchtigkeit
    00:00 +21°C° 0 mm 2 m/S 695 mmHg 87%
    01:00 +21°C° 0 mm 2 m/S 695 mmHg 89%
    02:00 +21°C° 0 mm 2 m/S 694 mmHg 90%
    03:00 +21°C° 0 mm 2 m/S 694 mmHg 92%
    04:00 +21°C° 0 mm 2 m/S 694 mmHg 93%
    05:00 +20°C° 0 mm 2 m/S 694 mmHg 94%
    06:00 +20°C° 0 mm 2 m/S 694 mmHg 95%
    07:00 +23°C° 0 mm 2 m/S 695 mmHg 88%
    08:00 +25°C° 0 mm 3 m/S 696 mmHg 82%
    09:00 +27°C° 0 mm 3 m/S 697 mmHg 75%
    10:00 +29°C° 0.1 mm 3 m/S 696 mmHg 68%
    11:00 +30°C° 0.1 mm 3 m/S 696 mmHg 62%
    12:00 +32°C° 0.1 mm 2 m/S 696 mmHg 55%
    13:00 +32°C° 0 mm 2 m/S 696 mmHg 52%
    14:00 +34°C° 0 mm 3 m/S 695 mmHg 49%
    15:00 +34°C° 0 mm 3 m/S 694 mmHg 47%
    16:00 +33°C° 0 mm 3 m/S 694 mmHg 52%
    17:00 +30°C° 0 mm 3 m/S 694 mmHg 58%
    18:00 +29°C° 0 mm 3 m/S 693 mmHg 63%
    19:00 +27°C° 0 mm 2 m/S 694 mmHg 67%
    20:00 +26°C° 0 mm 2 m/S 694 mmHg 71%
    21:00 +24°C° 0 mm 2 m/S 695 mmHg 76%
    22:00 +24°C° 0 mm 2 m/S 695 mmHg 79%
    23:00 +23°C° 0 mm 2 m/S 695 mmHg 83%

    übermorgen, 23 Februar, Samstag

    Zeit Temperatur Niederschläge Wind Luftdruck Luftfeuchtigkeit
    00:00 +23°C° 0 mm 1 m/S 695 mmHg 87%
    01:00 +22°C° 0 mm 1 m/S 694 mmHg 88%
    02:00 +22°C° 0 mm 1 m/S 694 mmHg 89%
    03:00 +22°C° 0 mm 1 m/S 693 mmHg 90%
    04:00 +21°C° 0 mm 1 m/S 693 mmHg 91%
    05:00 +21°C° 0 mm 1 m/S 693 mmHg 92%
    06:00 +21°C° 0 mm 1 m/S 693 mmHg 94%
    07:00 +23°C° 0 mm 1 m/S 694 mmHg 86%
    08:00 +25°C° 0 mm 1 m/S 695 mmHg 78%
    09:00 +28°C° 0 mm 1 m/S 695 mmHg 70%
    10:00 +29°C° 0 mm 1 m/S 695 mmHg 64%
    11:00 +31°C° 0 mm 1 m/S 695 mmHg 58%
    12:00 +32°C° 0 mm 1 m/S 695 mmHg 52%
    13:00 +33°C° 0 mm 1 m/S 694 mmHg 50%
    14:00 +33°C° 0 mm 1 m/S 693 mmHg 48%
    15:00 +33°C° 0 mm 1 m/S 693 mmHg 47%
    16:00 +32°C° 0 mm 1 m/S 692 mmHg 52%
    17:00 +31°C° 0 mm 1 m/S 692 mmHg 58%
    18:00 +30°C° 0 mm 1 m/S 692 mmHg 63%
    19:00 +28°C° 0 mm 1 m/S 692 mmHg 67%
    20:00 +27°C° 0 mm 1 m/S 692 mmHg 72%
    21:00 +26°C° 0 mm 1 m/S 693 mmHg 76%
    22:00 +25°C° 0.4 mm 1 m/S 693 mmHg 79%
    23:00 +25°C° 0.4 mm 1 m/S 692 mmHg 83%

    24 Februar, Sonntag

    Zeit Temperatur Niederschläge Wind Luftdruck Luftfeuchtigkeit
    00:00 +24°C° 0.4 mm 1 m/S 692 mmHg 86%
    01:00 +24°C° 0 mm 1 m/S 692 mmHg 87%
    02:00 +23°C° 0 mm 1 m/S 691 mmHg 87%
    03:00 +23°C° 0 mm 1 m/S 691 mmHg 88%
    04:00 +23°C° 0 mm 1 m/S 691 mmHg 88%
    05:00 +22°C° 0 mm 1 m/S 691 mmHg 88%
    06:00 +22°C° 0 mm 1 m/S 691 mmHg 89%
    07:00 +24°C° 0 mm 1 m/S 692 mmHg 82%
    08:00 +27°C° 0 mm 2 m/S 693 mmHg 75%
    09:00 +29°C° 0 mm 2 m/S 694 mmHg 68%
    10:00 +30°C° 0.2 mm 2 m/S 693 mmHg 64%
    11:00 +31°C° 0.2 mm 3 m/S 693 mmHg 61%
    12:00 +33°C° 0.2 mm 3 m/S 693 mmHg 57%
    13:00 +33°C° 1.6 mm 3 m/S 692 mmHg 60%
    14:00 +33°C° 1.6 mm 3 m/S 692 mmHg 62%
    15:00 +31°C° 1.6 mm 3 m/S 691 mmHg 65%
    16:00 +30°C° 0.8 mm 2 m/S 691 mmHg 68%
    17:00 +29°C° 0.8 mm 1 m/S 691 mmHg 71%
    18:00 +28°C° 0.8 mm 1 m/S 691 mmHg 74%
    19:00 +25°C° 0.2 mm 0 m/S 691 mmHg 76%
    20:00 +24°C° 0.2 mm 0 m/S 691 mmHg 78%
    21:00 +24°C° 0.2 mm 0 m/S 692 mmHg 80%
    22:00 +23°C° 0.2 mm 0 m/S 692 mmHg 81%
    23:00 +23°C° 0.2 mm 0 m/S 692 mmHg 82%

    25 Februar, Montag

    Zeit Temperatur Niederschläge Wind Luftdruck Luftfeuchtigkeit
    00:00 +23°C° 0.2 mm 0 m/S 691 mmHg 83%
    01:00 +22°C° 0 mm 0 m/S 691 mmHg 84%
    02:00 +22°C° 0 mm 0 m/S 690 mmHg 86%
    03:00 +24°C° 0 mm 1 m/S 690 mmHg 87%
    04:00 +23°C° 0 mm 1 m/S 690 mmHg 88%
    05:00 +21°C° 0 mm 0 m/S 690 mmHg 89%
    06:00 +21°C° 0 mm 0 m/S 690 mmHg 89%
    07:00 +23°C° 0.1 mm 0 m/S 691 mmHg 83%
    08:00 +27°C° 0.1 mm 1 m/S 692 mmHg 77%
    09:00 +29°C° 0.1 mm 1 m/S 692 mmHg 71%
    10:00 +30°C° 0.3 mm 2 m/S 692 mmHg 65%
    11:00 +31°C° 0.3 mm 2 m/S 692 mmHg 60%
    12:00 +33°C° 0.3 mm 3 m/S 692 mmHg 55%
    13:00 +33°C° 0.2 mm 3 m/S 692 mmHg 56%
    14:00 +33°C° 0.2 mm 3 m/S 691 mmHg 57%
    15:00 +33°C° 0.2 mm 3 m/S 690 mmHg 59%
    16:00 +31°C° 0 mm 2 m/S 690 mmHg 63%
    17:00 +30°C° 0 mm 2 m/S 690 mmHg 68%
    18:00 +29°C° 0 mm 2 m/S 691 mmHg 73%
    19:00 +27°C° 1.7 mm 1 m/S 691 mmHg 78%
    20:00 +26°C° 1.7 mm 1 m/S 691 mmHg 84%
    21:00 +25°C° 1.7 mm 1 m/S 691 mmHg 89%
    22:00 +25°C° 0.2 mm 1 m/S 691 mmHg 89%
    23:00 +25°C° 0.2 mm 1 m/S 691 mmHg 88%

    26 Februar, Dienstag

    Zeit Temperatur Niederschläge Wind Luftdruck Luftfeuchtigkeit
    00:00 +22°C° 0.2 mm 0 m/S 691 mmHg 87%
    01:00 +22°C° 0 mm 0 m/S 691 mmHg 87%
    02:00 +22°C° 0 mm 0 m/S 690 mmHg 87%
    03:00 +22°C° 0 mm 0 m/S 690 mmHg 87%
    04:00 +22°C° 0 mm 0 m/S 690 mmHg 87%
    05:00 +22°C° 0 mm 0 m/S 691 mmHg 87%
    06:00 +22°C° 0 mm 0 m/S 691 mmHg 87%
    07:00 +23°C° 0 mm 0 m/S 692 mmHg 83%
    08:00 +26°C° 0 mm 1 m/S 692 mmHg 78%
    09:00 +28°C° 0 mm 1 m/S 692 mmHg 74%
    10:00 +29°C° 0.6 mm 1 m/S 692 mmHg 68%
    11:00 +31°C° 0.6 mm 2 m/S 692 mmHg 62%
    12:00 +33°C° 0.6 mm 3 m/S 692 mmHg 56%
    13:00 +32°C° 0 mm 2 m/S 692 mmHg 56%
    14:00 +32°C° 0 mm 2 m/S 691 mmHg 55%
    15:00 +32°C° 0 mm 2 m/S 691 mmHg 55%
    16:00 +31°C° 0 mm 2 m/S 691 mmHg 59%
    17:00 +30°C° 0 mm 1 m/S 691 mmHg 64%
    18:00 +29°C° 0 mm 1 m/S 691 mmHg 69%
    19:00 +28°C° 0.6 mm 1 m/S 691 mmHg 72%
    20:00 +27°C° 0.6 mm 1 m/S 691 mmHg 75%
    21:00 +24°C° 0.6 mm 0 m/S 692 mmHg 78%
    22:00 +25°C° 1.8 mm 1 m/S 692 mmHg 81%
    23:00 +25°C° 1.8 mm 1 m/S 692 mmHg 83%
    Mehr zeigen